Home   Weather   Perth   Past weeks
Flag for Australia

Past Weather in Perth, Western Australia, Australia — Yesterday and Last 2 Weeks

Now
54 °F

Passing clouds.


Feels Like: 52 °F
Forecast: 75 / 53 °F
Wind: 7 mph from South

Location: Belmont Perth Airport

Current Time: Oct 18, 2019 at 5:30:46 am

Latest Report: Oct 18, 2019 at 4:30 am


Visibility: N/A

Pressure: 30.12 "Hg

Humidity: 82%

Dew Point: 48 °F

Location of PerthLocation

Past Weather in Perth — Graph

°F

Perth Temperature Yesterday

Maximum temperature yesterday: 73 °F (at 1:30 pm)
Minimum temperature yesterday: 43 °F (at 5:00 am)
Average temperature yesterday: 60 °F

High & Low Weather Summary for the Past Weeks

 TemperatureHumidityPressure
High88 °F (Oct 8, 3:00 pm)100% (Oct 9, 5:00 am)30.27 "Hg (Oct 9, 5:00 am)
Low41 °F (Oct 15, 6:00 am)22% (Oct 8, 3:00 pm)29.59 "Hg (Oct 4, 3:00 pm)
Average62 °F67%30.07 "Hg
* Reported Oct 3 4:00 am — Oct 18 4:00 am, Perth. Weather by CustomWeather, © 2019

Note: Actual official high and low records may vary slightly from our data, if they occured in-between our weather recording intervals... More about our weather records

Advertising

Perth Weather History for the Previous 24 Hours

Scroll right to see more
 ConditionsComfort  
Time TempWeatherWind HumidityBarometerVisibility
4:00 am
Fri, Oct 18
52 °FClear.9 mph82%30.12 "Hg10 mi
3:30 am52 °FClear.9 mph88%30.12 "Hg10 mi
3:00 am52 °FClear.8 mph88%30.12 "Hg10 mi
2:30 am54 °FClear.8 mph88%30.09 "Hg10 mi
2:00 am52 °FClear.8 mph94%30.09 "Hg10 mi
1:30 am52 °FClear.8 mph88%30.09 "Hg10 mi
1:00 am54 °FClear.9 mph88%30.09 "Hg10 mi
12:30 am55 °FClear.9 mph88%30.12 "Hg10 mi
10:30 pm
Thu, Oct 17
59 °FClear.10 mph77%30.12 "Hg10 mi
10:00 pm59 °FClear.13 mph77%30.12 "Hg10 mi
9:30 pm59 °FClear.14 mph77%30.12 "Hg10 mi
9:00 pm59 °FClear.15 mph77%30.12 "Hg10 mi
8:30 pm61 °FClear.16 mph72%30.12 "Hg10 mi
8:00 pm61 °FClear.14 mph72%30.12 "Hg10 mi
7:30 pm63 °FClear.15 mph68%30.12 "Hg10 mi
7:00 pm63 °FClear.14 mph64%30.12 "Hg10 mi
6:30 pm63 °FClear.16 mph64%30.09 "Hg10 mi
6:00 pm66 °FSunny.17 mph52%30.09 "Hg10 mi
5:30 pm66 °FSunny.16 mph52%30.09 "Hg10 mi
5:00 pm68 °FSunny.17 mph49%30.09 "Hg10 mi
4:30 pm70 °FSunny.17 mph50%30.09 "Hg10 mi
4:00 pm70 °FSunny.20 mph46%30.09 "Hg10 mi
3:30 pm72 °FSunny.20 mph44%30.07 "Hg10 mi
3:00 pm72 °FSunny.20 mph44%30.07 "Hg10 mi
2:30 pm72 °FPassing clouds.18 mph41%30.09 "HgN/A
2:00 pm73 °FPassing clouds.14 mph38%30.09 "HgN/A
1:30 pm73 °FPassing clouds.12 mph38%30.09 "HgN/A
1:00 pm72 °FSunny.14 mph36%30.09 "Hg10 mi
12:30 pm72 °FPassing clouds.8 mph36%30.12 "HgN/A
12:00 pm72 °FPassing clouds.8 mph33%30.12 "HgN/A
11:30 am70 °FPassing clouds.8 mph38%30.15 "HgN/A
11:00 am68 °FPartly sunny.6 mph43%30.15 "HgN/A
10:30 am66 °FPartly sunny.6 mph46%30.18 "HgN/A
10:00 am64 °FPassing clouds.6 mph49%30.18 "HgN/A
9:30 am64 °FPassing clouds.6 mph52%30.18 "HgN/A
9:00 am63 °FSunny.7 mph56%30.18 "Hg10 mi
8:30 am61 °FSunny.8 mph55%30.18 "Hg10 mi
8:00 am57 °FSunny.8 mph63%30.18 "Hg10 mi
7:30 am55 °FSunny.8 mph67%30.18 "Hg10 mi
7:00 am54 °FSunny.9 mph72%30.18 "Hg10 mi
6:30 am50 °FSunny.9 mph82%30.18 "Hg10 mi
6:00 am48 °FSunny.9 mph87%30.18 "Hg10 mi
5:30 am43 °FClear.8 mph100%30.15 "Hg10 mi
5:00 am43 °FClear.7 mph93%30.15 "Hg10 mi
Weather by CustomWeather, © 2019

See weather overview